This is the latest recevied weather packets stored in our database for station/object LA6LOA. If no packets are shown the sender has not sent any weather packets the latest 10 day(s).
| Time | Temp. | Humidity | Pressure | Rain* | Wind** | Luminosity | Snow |
|---|---|---|---|---|---|---|---|
| 1777816275 | 3.89° C | 100% | 1001.1 hPa | 0 mm | - | - | - |
| 1777815975 | 3.89° C | 100% | 1001.1 hPa | 0 mm | - | - | - |
| 1777815675 | 3.89° C | 100% | 1001.1 hPa | 0 mm | - | - | - |
| 1777815375 | 3.89° C | 100% | 1001.2 hPa | 0 mm | - | - | - |
| 1777815075 | 3.89° C | 100% | 1001.1 hPa | 0 mm | - | - | - |
| 1777814775 | 4.44° C | 100% | 1001.1 hPa | 0 mm | - | - | - |
| 1777814475 | 4.44° C | 100% | 1001.1 hPa | 0 mm | - | - | - |
| 1777814175 | 3.89° C | 100% | 1001 hPa | 0 mm | - | - | - |
| 1777813875 | 3.89° C | 100% | 1000.9 hPa | 0 mm | - | - | - |
| 1777813575 | 3.89° C | 100% | 1001 hPa | 0 mm | - | - | - |
| 1777813275 | 3.89° C | 100% | 1000.9 hPa | 0 mm | - | - | - |
| 1777812975 | 3.33° C | 100% | 1001.1 hPa | 0 mm | - | - | - |
| 1777812675 | 2.78° C | 100% | 1001.1 hPa | 0 mm | - | - | - |
| 1777812375 | 2.22° C | 100% | 1001.1 hPa | 0 mm | - | - | - |
| 1777812075 | 2.78° C | 100% | 1001.1 hPa | 0 mm | - | - | - |
| 1777811775 | 3.33° C | 100% | 1001.1 hPa | 0 mm | - | - | - |
| 1777811475 | 3.33° C | 100% | 1000.9 hPa | 0 mm | - | - | - |
| 1777811175 | 3.33° C | 100% | 1000.9 hPa | 0 mm | - | - | - |
| 1777810875 | 3.33° C | 100% | 1000.9 hPa | 0 mm | - | - | - |
| 1777810575 | 3.33° C | 100% | 1000.8 hPa | 0 mm | - | - | - |
| 1777810275 | 3.33° C | 100% | 1000.8 hPa | 0 mm | - | - | - |
| 1777809975 | 3.33° C | 100% | 1000.7 hPa | 0 mm | - | - | - |
| 1777809675 | 3.89° C | 100% | 1000.7 hPa | 0 mm | - | - | - |
| 1777809375 | 3.89° C | 100% | 1000.6 hPa | 0 mm | - | - | - |
| 1777809076 | 3.89° C | 100% | 1000.6 hPa | 0 mm | - | - | - |
* Rain latest hour (hover to see other rain measurements)
** Current wind speed in m/s (hover to see current wind gust speed)